Theta_e
338 344 346 344 342 341 340 338 339 340 341 339 338 344 345 346 346 345 345 356 355 354 356 357 357 355 350 349 349 349 348 346 345 343 342 342 343 343 343 346 345 345 345
340 342 341 339 341 340 340 338 338 340 337 343 348 348 347 345 345 342 344 344 355 355 355 356 356 351 349 351 349 346 343 342 340 340 340 339 339 339 338 339 340 343 344
342 340 337 338 338 338 337 343 343 345 345 346 342 341 342 340 341 342 339 343 342 345 352 352 351 348 350 350 349 344 343 342 339 339 337 338 335 335 334 335 335 335 337
344 341 337 338 338 342 346 348 345 342 339 336 334 334 336 338 335 333 341 339 336 336 340 346 346 346 343 344 345 343 340 339 339 337 334 333 332 331 330 331 331 331 332
344 339 339 341 347 346 346 344 337 338 333 331 334 336 334 335 330 343 340 334 334 329 328 331 337 335 337 339 338 335 337 337 335 332 331 330 329 329 329 329 329 329 329
346 343 349 347 346 343 341 340 336 333 330 329 333 334 333 334 337 336 332 334 324 324 319 316 319 320 332 336 335 336 334 332 331 330 328 328 328 327 327 327 327 327 328
345 342 349 345 343 340 338 337 336 331 330 331 328 329 330 330 335 331 329 323 321 317 314 316 317 319 321 332 332 331 329 328 328 327 326 324 325 326 326 325 326 325 326
346 344 345 342 340 337 333 331 331 328 330 331 324 324 319 323 329 329 320 316 316 315 316 318 317 318 319 321 326 328 327 326 326 325 323 322 322 323 323 323 324 325 326
347 343 343 339 335 332 330 330 329 328 325 328 331 324 317 315 319 323 315 313 313 312 313 314 317 316 315 318 320 320 324 323 324 324 322 320 322 322 322 322 323 323 323
342 342 339 335 332 331 329 329 332 328 326 322 323 321 320 316 310 306 310 310 314 314 313 314 314 316 315 314 319 321 322 321 322 321 321 320 321 321 322 322 322 322 321
340 340 336 334 332 331 330 328 325 323 321 317 315 313 311 310 309 306 303 309 312 312 313 313 312 314 314 313 312 317 322 321 318 318 318 319 320 321 321 321 320 320 320
337 337 334 332 330 328 327 326 322 318 318 315 314 313 311 309 308 307 304 305 306 309 311 312 312 311 312 312 317 319 319 318 318 317 317 317 318 319 319 319 319 319 320
334 332 331 327 326 325 324 319 317 316 316 315 315 314 313 310 310 309 307 305 304 307 307 309 311 311 314 311 312 316 315 313 313 315 316 316 316 317 317 318 318 317 318
330 326 324 324 324 320 319 318 317 317 316 316 313 312 311 310 310 310 307 303 303 303 306 305 312 311 311 310 311 314 308 310 312 313 313 313 313 314 315 316 316 316 316
327 323 322 320 319 319 317 317 317 316 315 314 312 312 310 310 309 310 307 306 303 299 302 304 306 309 311 308 308 307 305 310 310 310 310 312 312 312 313 314 314 314 315
323 320 318 317 316 316 316 316 315 315 313 313 312 310 309 308 309 308 308 306 305 304 301 305 306 307 309 307 308 305 304 308 309 309 309 311 312 312 313 313 313 313 314
319 317 316 316 316 317 315 313 313 314 312 311 310 309 308 307 306 306 305 304 304 303 301 305 307 307 306 304 304 304 304 304 305 308 309 310 310 311 311 312 313 312 311
316 316 316 316 316 315 313 313 313 313 311 310 310 308 307 307 302 301 301 300 302 304 305 303 305 304 303 304 304 302 304 305 304 307 309 310 310 309 310 311 311 310 307
314 315 314 312 312 311 313 313 313 312 311 310 310 306 304 301 298 298 297 298 301 304 305 305 303 303 302 303 303 303 303 303 305 308 307 309 308 309 310 309 310 308 305
310 308 306 306 304 303 304 307 312 310 312 310 309 305 303 299 296 296 297 296 299 301 306 303 301 299 299 300 301 299 298 301 301 304 307 307 308 308 307 309 308 307 304
307 305 303 301 299 298 299 300 305 310 310 305 304 306 302 301 302 301 298 298 302 303 301 302 298 298 297 296 295 297 296 298 300 303 303 303 304 303 304 306 305 306 303
304 300 296 295 293 296 297 301 302 307 308 304 301 299 299 299 297 299 302 306 304 300 299 299 298 296 296 297 297 296 296 295 295 303 302 301 303 301 302 304 304 303 302
300 296 293 291 289 291 296 298 303 306 305 300 297 296 297 298 294 293 297 302 302 303 304 300 298 297 297 298 297 296 296 296 296 301 301 298 300 299 300 303 304 302 302
299 294 291 290 291 294 297 299 303 302 297 296 295 294 293 293 292 293 294 297 297 298 299 303 300 300 299 300 300 299 298 298 300 302 300 294 298 297 299 301 302 302 301
302 295 293 292 290 291 295 296 294 297 298 294 294 294 293 291 294 294 293 293 294 296 301 303 301 299 297 298 300 301 298 297 295 297 299 295 297 295 297 299 299 301 300
298 298 296 294 295 290 293 293 293 292 293 293 292 292 297 293 294 294 291 291 291 294 295 297 298 299 301 302 302 302 300 296 296 296 299 295 296 294 292 298 297 298 299
Wind_Speed
6 5 5 5 5 4 5 5 5 6 7 7 5 4 2 3 7 4 1 7 8 8 9 8 8 7 4 6 4 4 5 5 7 8 10 12 14 16 17 16 17 17 18
5 4 4 5 5 4 4 4 4 5 4 2 4 4 5 6 5 5 5 4 4 9 9 7 6 4 8 8 4 3 3 5 7 9 9 11 13 16 17 19 19 19 18
6 5 3 2 2 3 4 2 3 4 5 5 6 5 6 6 6 8 10 3 4 9 9 5 4 6 10 12 6 5 2 6 7 6 10 10 13 14 16 17 19 20 21
7 4 3 3 3 3 3 5 4 5 5 5 4 5 5 6 7 8 6 4 5 5 7 9 10 13 15 15 12 8 4 7 6 8 11 14 15 16 18 19 19 20 21
6 4 2 2 5 5 5 4 5 4 4 4 4 4 4 4 4 4 5 6 6 5 6 11 12 13 14 13 14 10 7 12 11 12 14 14 16 18 19 20 21 22 22
6 5 4 6 6 6 5 5 5 6 3 2 3 4 4 4 3 5 4 5 6 8 6 6 5 6 12 10 11 15 14 14 15 16 17 19 20 21 22 22 22 23 24
6 6 4 6 7 6 5 6 3 4 4 3 3 4 4 4 6 4 6 6 7 7 7 6 4 4 7 14 15 14 13 14 16 18 19 19 21 21 23 24 24 25 22
6 6 6 5 6 6 6 5 4 2 2 2 1 1 4 5 3 4 4 7 7 5 6 8 6 6 6 4 6 14 17 19 20 21 20 20 21 21 22 24 22 21 21
8 9 7 8 8 5 4 3 3 3 1 2 6 3 3 2 4 3 5 5 7 3 4 5 5 7 7 5 6 10 19 21 23 22 19 20 20 22 22 22 22 20 20
10 9 9 8 9 5 5 3 4 4 4 5 3 4 5 1 1 5 3 5 5 7 9 8 6 8 5 4 12 15 21 23 21 21 22 23 22 21 22 22 22 22 21
10 9 8 7 7 5 5 6 6 6 5 3 3 3 4 2 3 2 5 8 4 4 5 5 5 3 3 5 5 12 22 21 23 24 25 26 24 24 24 22 22 23 24
7 8 9 8 6 6 6 5 6 7 6 5 4 4 3 2 2 2 2 4 6 5 5 5 4 5 5 5 12 22 22 22 21 22 25 23 23 22 22 21 23 23 25
5 7 8 7 5 6 6 7 6 6 4 5 5 4 3 4 2 2 2 4 3 4 3 3 5 6 5 5 7 25 21 25 24 23 22 23 22 22 21 22 21 21 24
8 8 7 6 7 6 6 6 4 3 6 6 8 6 4 4 4 3 2 3 5 3 5 6 9 8 6 5 15 26 13 25 26 22 22 24 24 24 24 25 20 22 23
9 7 6 6 6 6 7 6 5 5 6 6 6 7 5 4 4 4 4 3 2 4 8 5 7 8 7 6 13 13 12 23 25 25 24 24 24 25 24 23 19 20 21
11 8 6 6 6 6 6 6 6 5 8 5 5 7 5 4 5 5 6 4 3 3 6 6 8 10 8 8 13 12 13 23 25 26 26 25 25 23 22 20 20 18 19
10 8 5 5 5 6 7 7 8 7 8 7 5 6 7 7 6 7 6 4 4 3 6 9 9 10 12 11 12 11 13 13 13 26 25 25 23 21 22 21 17 17 18
9 7 6 6 6 7 7 8 7 7 7 6 5 7 7 7 7 7 6 6 4 6 7 14 12 11 12 11 14 14 12 12 13 19 26 23 21 24 21 19 13 11 16
9 7 6 8 9 9 8 7 8 6 6 7 7 8 9 9 9 7 6 6 6 7 7 7 10 10 11 11 14 13 13 14 11 22 19 19 21 21 15 20 11 13 17
13 10 9 10 10 10 8 8 6 7 9 10 10 9 8 8 9 9 7 7 8 7 6 7 8 11 11 15 10 13 14 12 13 12 13 16 18 19 19 19 17 15 18
12 12 12 11 10 9 7 7 7 6 8 8 8 6 8 16 19 15 6 9 9 7 7 8 9 11 12 13 14 11 11 12 14 7 12 11 10 10 10 10 15 17 19
13 12 11 11 9 7 10 10 6 4 7 9 10 9 8 13 13 17 18 17 14 7 9 6 8 12 14 12 11 10 10 11 11 5 13 11 8 10 9 6 13 19 17
14 12 11 11 10 7 11 10 9 7 11 10 8 7 7 7 8 8 12 12 12 16 11 2 8 9 11 14 11 13 13 12 10 12 9 8 10 10 10 7 12 21 17
14 12 11 9 10 10 16 16 13 9 9 7 6 6 5 6 8 8 8 10 11 9 10 3 6 7 6 11 11 10 11 12 9 8 9 8 10 11 9 6 17 18 18
13 14 11 11 12 13 19 16 10 8 7 6 5 6 6 6 10 10 7 8 9 11 10 11 11 14 11 13 13 9 10 11 13 9 8 7 8 11 4 5 9 18 17
13 11 10 8 15 12 14 15 10 6 7 4 5 7 10 11 14 13 7 7 11 11 10 11 10 11 12 10 16 12 10 11 9 6 9 9 6 9 6 3 9 9 9
Wind_Direction
183 169 187 193 203 203 197 221 208 216 241 244 283 329 325 6 19 359 347 259 224 235 237 232 241 244 249 274 299 293 315 349 352 359 6 5 3 357 346 326 303 287 275
173 180 180 177 204 202 223 220 222 211 237 16 15 34 24 16 352 341 353 327 257 230 250 257 262 263 259 272 282 302 359 348 356 353 7 4 9 7 358 350 345 338 322
182 182 183 252 246 246 183 184 352 39 50 38 32 17 19 351 357 351 341 332 355 24 21 338 328 276 310 332 301 298 339 10 339 345 6 11 10 3 354 347 343 337 333
179 166 169 225 247 16 45 65 49 63 61 37 3 352 356 347 332 350 319 14 31 36 34 20 1 8 10 14 352 334 25 308 310 19 6 359 354 348 342 339 334 328 324
182 167 161 281 80 70 57 65 50 72 48 18 2 341 318 302 335 327 333 40 41 15 31 12 9 11 12 21 10 355 325 28 26 7 360 352 346 339 332 328 325 321 315
174 125 97 98 91 75 59 50 65 52 74 4 329 294 287 321 356 9 347 43 29 30 18 358 3 359 343 333 341 27 38 22 16 360 348 341 334 325 318 313 312 310 305
161 108 102 88 83 83 73 48 56 54 8 1 355 330 309 251 75 340 24 17 11 6 1 4 354 334 340 337 61 58 34 10 355 347 343 334 321 315 314 312 308 304 299
122 107 112 97 96 86 79 66 54 43 5 3 50 354 339 355 350 35 30 12 354 360 13 1 348 339 1 18 51 38 14 359 346 337 332 332 322 321 318 317 320 314 313
77 90 99 88 83 93 92 95 76 91 79 4 70 116 21 349 345 325 14 11 352 17 346 338 338 342 2 23 12 8 356 341 334 334 335 331 328 324 319 316 316 318 320
92 88 92 107 103 102 99 79 54 36 51 35 22 16 68 128 307 325 325 352 2 357 349 336 339 356 27 16 2 349 341 339 340 335 331 329 324 319 317 316 315 314 312
92 95 89 75 81 76 78 78 66 55 66 81 53 348 22 346 51 106 304 341 337 330 318 318 325 13 8 10 340 341 338 334 334 334 333 334 329 324 321 318 319 317 310
95 82 84 83 76 79 75 78 75 64 70 64 60 42 57 31 344 38 320 305 310 321 319 327 13 6 3 349 348 343 340 335 332 329 328 323 319 318 317 322 318 318 316
94 92 92 85 83 85 86 79 75 70 71 73 57 41 40 40 342 339 349 308 312 313 328 327 6 0 359 337 348 339 342 333 329 322 322 325 334 322 318 319 318 316 314
105 93 87 92 94 95 89 83 80 81 65 74 57 43 42 10 2 2 331 353 344 319 336 307 344 353 340 350 347 345 329 330 329 329 332 328 327 328 324 318 312 313 314
102 90 85 91 87 93 102 98 84 71 71 69 58 49 42 1 1 9 9 17 24 324 321 342 334 329 337 339 336 339 330 327 333 332 332 326 328 325 321 318 314 316 317
106 99 98 92 95 94 103 87 74 66 65 49 57 57 35 3 11 13 3 352 359 342 322 329 319 324 323 332 330 337 324 335 332 334 331 331 328 322 319 321 317 325 328
111 106 124 133 123 96 85 84 74 69 67 61 63 61 41 30 18 11 356 347 345 341 317 315 321 327 327 330 327 336 331 331 327 335 332 326 318 321 319 314 315 325 333
103 128 145 112 96 90 82 82 84 77 80 64 64 67 50 33 22 6 353 349 324 319 316 331 337 335 331 331 324 335 335 335 329 332 333 322 326 323 319 327 321 342 345
113 106 82 74 67 53 54 78 92 85 73 51 42 68 51 33 14 360 347 340 330 319 315 328 331 339 333 338 334 338 338 331 331 334 328 329 322 323 346 343 7 8 348
89 86 77 74 65 58 45 37 53 77 65 63 66 71 62 42 15 357 350 327 325 321 328 338 344 340 345 346 344 337 333 333 327 323 326 328 328 339 350 5 5 2 356
95 86 79 69 60 54 36 28 32 61 82 71 56 77 59 32 18 9 348 330 331 5 354 354 350 348 345 346 346 332 323 321 325 307 331 336 330 342 349 5 4 354 357
89 82 72 67 53 48 18 40 47 66 87 75 58 37 35 26 7 1 357 353 1 359 356 357 358 354 340 339 335 326 324 331 338 317 325 328 333 340 348 334 14 5 357
96 87 74 68 55 28 15 27 56 52 81 74 68 52 38 16 2 358 349 345 354 347 356 350 348 348 345 340 324 329 331 326 321 313 332 325 343 338 344 329 346 6 358
99 89 77 64 60 36 37 43 61 74 81 74 75 69 47 359 2 1 349 355 350 348 344 328 328 315 324 331 330 323 317 316 317 331 12 324 334 339 333 324 2 357 355
99 90 80 71 62 44 36 38 47 53 78 86 62 33 37 11 360 8 7 354 354 350 334 334 328 320 305 322 333 333 350 344 336 342 19 329 337 332 322 328 350 355 355
94 91 87 74 64 54 36 40 45 44 46 55 27 16 13 29 22 20 24 4 10 348 338 334 340 342 339 336 349 357 346 344 336 336 4 336 335 348 332 332 338 352 353